TimeCST,TemperatureF,Dew PointF,Humidity,Sea Level PressureIn,VisibilityMPH,Wind Direction,Wind SpeedMPH,Gust SpeedMPH,PrecipitationIn,Events,Conditions,WindDirDegrees,DateUTC
12:55 AM,35.2,30.9,84,29.84,10.0,SE,11.5,-,N/A,,Clear,130,2013-02-24 06:55:00
1:55 AM,34.0,30.7,88,29.83,10.0,SE,11.5,-,N/A,,Clear,130,2013-02-24 07:55:00
2:55 AM,32.5,30.0,90,29.82,10.0,ESE,9.2,-,N/A,,Clear,110,2013-02-24 08:55:00
3:55 AM,32.2,29.8,91,29.81,10.0,ESE,9.2,-,N/A,,Clear,120,2013-02-24 09:55:00
4:55 AM,32.9,30.0,89,29.79,10.0,ESE,12.7,-,N/A,,Clear,120,2013-02-24 10:55:00
5:55 AM,32.4,29.8,90,29.79,10.0,SE,10.4,-,N/A,,Clear,130,2013-02-24 11:55:00
6:55 AM,32.0,29.8,92,29.81,10.0,ESE,8.1,-,N/A,,Clear,120,2013-02-24 12:55:00
7:55 AM,32.4,30.6,93,29.82,10.0,ESE,10.4,-,N/A,,Clear,120,2013-02-24 13:55:00
8:55 AM,38.3,32.9,81,29.84,10.0,SE,11.5,-,N/A,,Clear,130,2013-02-24 14:55:00
9:55 AM,44.6,35.4,70,29.82,10.0,SE,16.1,-,N/A,,Clear,140,2013-02-24 15:55:00
10:55 AM,49.8,37.4,62,29.80,10.0,SE,16.1,-,N/A,,Clear,140,2013-02-24 16:55:00
11:55 AM,54.0,39.6,58,29.78,10.0,SE,13.8,-,N/A,,Clear,140,2013-02-24 17:55:00
12:55 PM,58.8,41.5,53,29.73,10.0,SSE,19.6,-,N/A,,Clear,160,2013-02-24 18:55:00
1:55 PM,62.6,43.5,50,29.68,10.0,South,13.8,24.2,N/A,,Clear,170,2013-02-24 19:55:00
2:55 PM,65.1,43.0,45,29.65,10.0,South,17.3,-,N/A,,Clear,180,2013-02-24 20:55:00
3:55 PM,66.4,42.6,42,29.61,10.0,SE,16.1,23.0,N/A,,Clear,140,2013-02-24 21:55:00
4:55 PM,66.6,42.6,42,29.59,10.0,SE,15.0,-,N/A,,Clear,140,2013-02-24 22:55:00
5:55 PM,63.9,44.6,50,29.60,10.0,SE,11.5,-,N/A,,Clear,130,2013-02-24 23:55:00
6:55 PM,58.1,43.2,58,29.62,10.0,ESE,15.0,-,N/A,,Clear,110,2013-02-25 00:55:00
7:55 PM,55.6,43.3,63,29.59,10.0,ESE,18.4,-,N/A,,Clear,110,2013-02-25 01:55:00
8:37 PM,57.2,42.8,59,29.60,10.0,ESE,16.1,-,N/A,Rain,Light Rain,110,2013-02-25 02:37:00
8:55 PM,55.4,43.5,64,29.67,10.0,West,9.2,27.6,0.00,Rain,Light Rain,280,2013-02-25 02:55:00
8:56 PM,51.8,41.0,67,29.65,10.0,North,31.1,47.2,N/A,,Mostly Cloudy,350,2013-02-25 02:56:00
9:01 PM,53.6,42.8,67,29.66,10.0,North,15.0,47.2,N/A,Rain,Light Rain,10,2013-02-25 03:01:00
9:10 PM,51.8,41.0,67,29.66,10.0,NNW,25.3,-,N/A,Rain,Light Rain,340,2013-02-25 03:10:00
9:26 PM,44.6,39.2,81,29.66,10.0,North,26.5,33.4,N/A,Rain-Thunderstorm,Light Thunderstorms and Rain,360,2013-02-25 03:26:00
9:55 PM,42.3,39.9,91,29.70,10.0,North,17.3,26.5,0.07,Rain-Thunderstorm,Light Thunderstorms and Rain,350,2013-02-25 03:55:00
9:59 PM,41.0,39.2,93,29.67,9.0,NNE,27.6,33.4,N/A,Rain,Rain,20,2013-02-25 03:59:00
10:03 PM,41.0,39.2,93,29.66,6.0,NNE,29.9,-,N/A,Rain,Heavy Rain,20,2013-02-25 04:03:00
10:05 PM,41.0,39.2,93,29.67,5.0,NNE,29.9,40.3,N/A,Rain-Thunderstorm,Light Thunderstorms and Rain,20,2013-02-25 04:05:00
10:07 PM,41.0,39.2,93,29.68,5.0,NNE,27.6,40.3,N/A,Rain-Thunderstorm,Thunderstorms and Rain,20,2013-02-25 04:07:00
10:10 PM,41.0,39.2,93,29.69,6.0,NNE,27.6,40.3,N/A,Rain-Thunderstorm,Thunderstorms and Rain,20,2013-02-25 04:10:00
10:19 PM,41.0,39.2,93,29.69,7.0,NNE,29.9,36.8,N/A,Rain-Thunderstorm,Light Thunderstorms and Rain,20,2013-02-25 04:19:00
10:20 PM,41.0,39.2,93,29.70,7.0,NNE,28.8,36.8,N/A,Thunderstorm,Overcast,20,2013-02-25 04:20:00
10:21 PM,39.2,39.2,100,29.70,6.0,NNE,27.6,36.8,N/A,Rain-Thunderstorm,Light Thunderstorms and Rain,20,2013-02-25 04:21:00
10:28 PM,39.2,39.2,100,29.69,4.0,NNE,26.5,36.8,N/A,Rain-Thunderstorm,Heavy Thunderstorms and Rain,20,2013-02-25 04:28:00
10:38 PM,39.2,39.2,100,29.70,8.0,North,27.6,32.2,N/A,Rain-Thunderstorm,Light Thunderstorms and Rain,360,2013-02-25 04:38:00
10:47 PM,39.2,39.2,100,29.71,9.0,North,18.4,28.8,N/A,Rain-Thunderstorm,Light Thunderstorms and Rain,360,2013-02-25 04:47:00
10:55 PM,39.6,38.8,97,29.72,9.0,North,19.6,28.8,0.10,Rain-Thunderstorm,Light Thunderstorms and Rain,360,2013-02-25 04:55:00
11:05 PM,39.2,39.2,100,29.69,7.0,NNE,18.4,-,N/A,Rain-Thunderstorm,Rain,20,2013-02-25 05:05:00
11:10 PM,39.2,39.2,100,29.69,6.0,NNE,21.9,27.6,N/A,Rain-Thunderstorm,Heavy Rain,20,2013-02-25 05:10:00
11:16 PM,39.2,39.2,100,29.71,6.0,North,19.6,27.6,N/A,Rain-Thunderstorm,Heavy Rain,10,2013-02-25 05:16:00
11:18 PM,39.2,39.2,100,29.71,6.0,NNE,18.4,27.6,N/A,Rain-Thunderstorm,Rain,20,2013-02-25 05:18:00
11:23 PM,39.2,39.2,100,29.71,7.0,NNE,23.0,-,N/A,Rain-Thunderstorm,Thunderstorms and Rain,20,2013-02-25 05:23:00
11:30 PM,39.2,39.2,100,29.71,6.0,NNE,19.6,-,N/A,Rain-Thunderstorm,Heavy Thunderstorms and Rain,20,2013-02-25 05:30:00
11:39 PM,39.2,39.2,100,29.71,3.0,NNE,23.0,29.9,N/A,Rain-Thunderstorm,Heavy Thunderstorms and Rain,30,2013-02-25 05:39:00
11:40 PM,39.2,39.2,100,29.71,3.0,NNE,21.9,29.9,N/A,Rain-Thunderstorm,Heavy Thunderstorms and Rain,30,2013-02-25 05:40:00
11:46 PM,39.2,39.2,100,29.70,4.0,NNE,23.0,29.9,N/A,Rain-Thunderstorm,Heavy Thunderstorms and Rain,30,2013-02-25 05:46:00
11:55 PM,39.6,39.4,99,29.69,3.0,NNE,21.9,-,0.22,Rain-Thunderstorm,Heavy Thunderstorms and Rain,20,2013-02-25 05:55:00